This is the latest recevied weather packets stored in our database for station/object W3AJR. If no packets are shown the sender has not sent any weather packets the latest 10 day(s).
| Time | Temp. | Humidity | Pressure | Rain* | Wind** | Luminosity | Snow |
|---|---|---|---|---|---|---|---|
| 1778254778 | 18.89° C | 43% | 1015.2 hPa | 0 mm | - | 828 W/m² | - |
| 1778254476 | 18.89° C | 46% | 1015.1 hPa | 0 mm | - | 794 W/m² | - |
| 1778254171 | 17.78° C | 42% | 1015.1 hPa | 0 mm | - | 826 W/m² | - |
| 1778253868 | 18.33° C | 43% | 1015.1 hPa | 0 mm | - | 892 W/m² | - |
| 1778253565 | 18.33° C | 43% | 1015.2 hPa | 0 mm | - | 867 W/m² | - |
| 1778253262 | 18.33° C | 44% | 1015.3 hPa | 0 mm | - | 860 W/m² | - |
| 1778252958 | 18.33° C | 41% | 1015.3 hPa | 0 mm | - | 830 W/m² | - |
| 1778252655 | 17.78° C | 42% | 1015.2 hPa | 0 mm | - | 832 W/m² | - |
| 1778252351 | 17.78° C | 46% | 1015.5 hPa | 0 mm | - | 828 W/m² | - |
| 1778252047 | 17.22° C | 42% | 1015.5 hPa | 0 mm | - | 765 W/m² | - |
| 1778251744 | 17.22° C | 43% | 1015.6 hPa | 0 mm | - | 772 W/m² | - |
| 1778251442 | 17.22° C | 43% | 1015.4 hPa | 0 mm | - | 753 W/m² | - |
| 1778251139 | 16.67° C | 42% | 1015.5 hPa | 0 mm | - | 785 W/m² | - |
| 1778250837 | 16.67° C | 44% | 1015.6 hPa | 0 mm | - | 640 W/m² | - |
| 1778250533 | 16.67° C | 45% | 1015.6 hPa | 0 mm | - | 75 W/m² | - |
| 1778250230 | 16.11° C | 45% | 1015.5 hPa | 0 mm | - | 146 W/m² | - |
| 1778249926 | 15.56° C | 48% | 1015.5 hPa | 0 mm | - | 66 W/m² | - |
| 1778249623 | 15.56° C | 46% | 1015.6 hPa | 0 mm | - | 58 W/m² | - |
| 1778249321 | 15° C | 48% | 1015.5 hPa | 0 mm | - | 57 W/m² | - |
| 1778249018 | 15° C | 50% | 1015.6 hPa | 0 mm | - | 57 W/m² | - |
| 1778248713 | 15° C | 48% | 1015.8 hPa | 0 mm | - | 55 W/m² | - |
| 1778248410 | 14.44° C | 53% | 1015.8 hPa | 0 mm | - | 55 W/m² | - |
| 1778248106 | 14.44° C | 55% | 1015.7 hPa | 0 mm | - | 55 W/m² | - |
| 1778247803 | 14.44° C | 51% | 1015.7 hPa | 0 mm | - | 53 W/m² | - |
| 1778247499 | 13.89° C | 52% | 1015.8 hPa | 0 mm | - | 52 W/m² | - |
* Rain latest hour (hover to see other rain measurements)
** Current wind speed in m/s (hover to see current wind gust speed)